Temp
13 13 13 13 13 13 13 13 12 12 12 12 12 12 12 12 11 11 11 11 11 11 11 11 11 11 11 11 11 11 11 11 11 11 11 11 11 11 11 11 11 11
14 14 13 13 13 13 13 13 13 12 12 12 12 12 12 12 12 11 11 11 11 11 11 11 11 11 11 12 12 11 11 11 11 11 11 11 11 11 11 11 11 11
14 14 14 14 13 13 13 13 13 13 12 12 12 12 12 12 12 12 11 11 11 11 11 11 11 12 12 12 12 12 11 11 11 11 11 11 11 11 11 11 11 11
14 14 14 14 14 13 13 13 13 13 13 13 12 12 12 12 12 12 12 11 11 11 11 11 11 12 12 12 12 12 12 12 11 11 12 12 11 11 11 12 12 12
14 14 14 14 14 14 13 13 13 13 13 13 13 12 12 12 12 12 12 12 12 11 11 11 11 12 12 12 12 12 12 12 12 12 12 12 12 12 12 12 12 12
14 14 14 14 14 14 14 14 13 13 13 13 13 13 13 13 12 12 12 12 12 12 12 12 12 12 12 12 12 12 12 12 12 12 12 12 12 12 12 12 12 12
15 14 14 14 14 14 14 14 14 13 13 13 13 13 13 13 13 13 12 12 12 12 12 12 12 12 12 12 12 12 12 12 12 12 12 12 12 12 12 12 12 12
15 15 14 14 14 14 14 14 14 14 13 13 13 13 13 13 13 13 12 12 12 12 12 12 12 12 12 12 12 12 12 12 12 12 12 12 12 12 12 12 12 12
15 15 15 14 14 14 14 14 14 14 14 13 13 13 13 13 13 13 13 12 12 12 12 12 13 13 12 12 13 13 13 12 12 12 12 12 12 12 12 12 12 12
15 15 15 15 14 14 14 14 14 14 14 14 13 13 13 13 13 13 13 13 12 12 12 12 13 13 13 13 13 13 13 13 13 13 13 13 12 12 12 12 12 12
16 15 15 15 15 15 14 14 14 14 14 14 14 13 13 13 13 13 13 13 13 13 12 12 12 13 13 13 13 13 13 13 13 13 13 13 13 12 12 12 12 12
16 16 16 15 15 15 15 14 14 14 14 14 14 14 13 13 13 13 13 13 13 13 13 13 13 13 13 13 13 13 13 13 13 13 13 13 13 13 13 13 12 12
16 16 16 16 15 15 15 15 15 14 14 14 14 14 14 14 14 14 13 13 13 13 13 13 13 13 13 13 13 13 13 13 13 13 13 13 13 13 13 13 13 13
16 16 16 16 16 15 15 15 15 15 14 14 14 14 14 14 14 14 14 13 13 13 13 13 13 13 13 13 14 14 14 14 14 14 14 13 13 13 13 13 13 13
16 16 16 16 16 16 15 15 15 15 15 15 15 15 14 14 14 14 14 14 13 13 13 13 13 13 13 13 14 14 14 14 14 14 14 14 14 13 13 13 13 13
16 15 15 15 15 16 15 15 15 15 15 15 15 15 14 14 14 13 13 14 14 14 13 13 13 14 13 13 13 14 14 14 14 14 14 14 14 14 13 13 13 13
16 16 15 15 15 15 15 15 15 15 15 14 14 14 14 14 14 13 13 14 14 14 14 13 14 14 14 14 13 13 14 14 14 14 14 14 14 14 14 14 13 13
16 16 15 15 15 15 15 15 15 14 14 14 14 14 14 14 14 14 13 13 14 14 14 14 14 14 14 14 14 14 14 14 14 14 14 14 14 14 14 14 14 13
16 16 16 15 15 15 15 15 15 14 14 14 14 14 14 14 14 14 14 13 13 14 14 15 14 14 14 14 14 14 14 14 14 14 14 14 14 14 14 14 14 14
17 16 16 16 15 15 15 15 15 15 14 14 14 14 14 14 14 14 14 14 14 14 14 15 15 15 15 15 14 14 14 14 14 14 14 15 14 14 14 14 14 14
17 17 16 16 16 16 15 15 15 15 15 14 14 14 14 14 14 14 14 14 14 14 14 15 15 15 16 15 15 14 14 14 14 14 14 15 15 15 14 14 14 14
17 17 17 16 16 16 16 16 15 15 15 15 15 15 15 15 14 14 14 14 14 14 14 15 15 15 16 16 16 15 14 14 14 14 14 15 15 15 15 15 14 14
17 17 17 17 16 16 16 16 16 16 16 15 15 15 15 15 15 15 15 14 15 15 15 15 15 15 15 16 16 15 15 14 14 15 15 15 15 15 15 15 15 15
17 17 17 17 17 17 17 16 16 16 16 16 16 15 15 15 15 15 15 15 15 15 15 15 15 15 15 15 15 15 15 15 15 15 15 15 15 15 15 15 15 15
17 17 17 17 17 17 17 17 16 16 16 16 16 16 15 15 15 15 15 15 15 15 15 16 16 16 16 16 16 15 15 15 15 15 15 15 15 15 15 15 15 15
18 17 17 17 17 17 17 17 16 16 16 16 16 16 15 15 15 15 15 15 15 15 16 16 16 16 16 16 16 16 16 15 15 15 15 15 15 15 15 15 15 16
Height
3190 3192 3194 3196 3197 3199 3200 3202 3203 3204 3205 3206 3207 3208 3209 3210 3211 3211 3212 3213 3214 3215 3216 3217 3218 3219 3220 3221 3222 3222 3223 3223 3224 3224 3224 3225 3225 3225 3225 3225 3226 3226
3188 3190 3192 3194 3195 3197 3199 3200 3201 3202 3203 3204 3205 3207 3208 3208 3209 3209 3210 3211 3212 3213 3214 3215 3216 3217 3218 3219 3220 3221 3222 3222 3223 3223 3223 3224 3224 3224 3224 3224 3225 3225
3186 3188 3189 3191 3193 3195 3197 3198 3199 3200 3202 3203 3204 3205 3206 3207 3207 3208 3209 3210 3211 3212 3212 3213 3214 3215 3216 3217 3219 3220 3220 3221 3222 3222 3222 3222 3223 3223 3223 3223 3224 3224
3183 3185 3187 3189 3191 3193 3195 3196 3197 3198 3200 3201 3202 3203 3204 3205 3205 3206 3207 3208 3209 3210 3211 3212 3212 3213 3215 3216 3217 3218 3219 3220 3220 3220 3221 3221 3222 3222 3222 3222 3223 3223
3181 3183 3185 3187 3189 3191 3192 3193 3195 3196 3198 3199 3200 3201 3202 3203 3203 3204 3205 3206 3207 3208 3209 3210 3211 3212 3213 3214 3215 3216 3217 3218 3219 3219 3219 3220 3221 3221 3221 3221 3221 3222
3178 3180 3182 3184 3186 3188 3189 3191 3193 3194 3195 3197 3197 3198 3199 3200 3201 3202 3203 3204 3205 3206 3207 3208 3209 3210 3210 3212 3213 3214 3215 3216 3217 3217 3218 3218 3219 3220 3220 3220 3220 3220
3175 3177 3180 3181 3183 3185 3187 3189 3190 3192 3193 3194 3195 3196 3197 3198 3199 3200 3201 3202 3203 3204 3205 3206 3207 3208 3208 3209 3211 3212 3213 3214 3214 3215 3216 3216 3217 3218 3218 3219 3219 3219
3172 3174 3176 3178 3180 3182 3184 3186 3187 3189 3191 3192 3192 3194 3195 3196 3197 3198 3199 3200 3201 3201 3202 3203 3204 3205 3206 3207 3208 3209 3211 3212 3212 3213 3214 3214 3215 3216 3216 3217 3217 3217
3168 3171 3173 3175 3177 3178 3180 3183 3184 3186 3188 3189 3190 3191 3192 3193 3195 3196 3197 3198 3198 3199 3200 3201 3201 3203 3204 3204 3205 3207 3208 3209 3210 3210 3211 3212 3213 3214 3214 3215 3215 3215
3165 3167 3169 3171 3173 3175 3177 3180 3181 3183 3185 3186 3187 3189 3190 3191 3192 3193 3194 3195 3196 3196 3197 3198 3199 3200 3202 3202 3203 3204 3206 3207 3208 3208 3209 3210 3211 3212 3212 3212 3213 3213
3162 3164 3165 3167 3170 3171 3174 3177 3178 3180 3181 3183 3185 3186 3187 3188 3189 3190 3191 3192 3193 3194 3195 3196 3197 3198 3199 3200 3200 3201 3203 3204 3205 3206 3206 3207 3208 3209 3209 3209 3210 3211
3158 3160 3162 3164 3167 3169 3171 3173 3175 3177 3178 3179 3182 3183 3184 3184 3186 3187 3188 3189 3191 3192 3193 3193 3195 3195 3196 3197 3198 3199 3200 3201 3202 3203 3204 3204 3205 3206 3207 3207 3207 3208
3156 3157 3159 3162 3164 3166 3168 3170 3172 3173 3175 3176 3178 3180 3181 3182 3182 3184 3185 3186 3188 3189 3190 3191 3192 3193 3193 3194 3195 3196 3197 3198 3199 3200 3201 3202 3203 3204 3204 3204 3204 3205
3153 3155 3158 3160 3162 3164 3165 3167 3168 3170 3172 3173 3174 3176 3178 3179 3180 3181 3182 3184 3185 3186 3187 3188 3189 3190 3190 3191 3192 3193 3193 3194 3196 3197 3198 3199 3200 3201 3201 3201 3201 3201
3151 3154 3156 3158 3159 3161 3162 3164 3166 3167 3169 3170 3171 3173 3175 3176 3177 3178 3179 3180 3181 3183 3184 3184 3185 3186 3186 3187 3189 3190 3191 3192 3193 3194 3195 3196 3196 3197 3198 3198 3198 3197
3149 3151 3153 3155 3156 3158 3160 3162 3163 3165 3166 3167 3168 3170 3172 3173 3174 3175 3175 3176 3177 3179 3180 3181 3181 3182 3183 3184 3186 3187 3189 3189 3190 3191 3192 3192 3193 3194 3194 3195 3195 3195
3145 3148 3150 3152 3154 3155 3157 3159 3161 3162 3164 3165 3166 3167 3169 3170 3171 3172 3173 3173 3173 3175 3177 3177 3178 3179 3180 3182 3183 3185 3186 3186 3187 3187 3188 3189 3189 3190 3190 3191 3192 3192
3142 3145 3147 3149 3151 3153 3155 3157 3159 3160 3161 3162 3163 3165 3166 3167 3168 3169 3170 3171 3171 3171 3173 3174 3175 3176 3177 3179 3180 3182 3182 3183 3183 3184 3184 3185 3185 3186 3187 3187 3188 3189
3138 3141 3144 3146 3148 3150 3152 3154 3156 3157 3158 3159 3160 3162 3163 3164 3165 3166 3168 3169 3169 3168 3169 3171 3172 3173 3174 3175 3177 3178 3179 3180 3180 3180 3180 3181 3181 3182 3183 3183 3184 3185
3135 3138 3140 3142 3144 3146 3148 3151 3153 3154 3155 3157 3158 3159 3160 3161 3162 3163 3164 3166 3166 3166 3166 3167 3168 3169 3171 3172 3174 3175 3176 3176 3176 3176 3176 3177 3177 3178 3179 3179 3180 3181
3131 3134 3137 3139 3141 3143 3145 3147 3149 3151 3152 3154 3155 3156 3157 3158 3159 3161 3162 3162 3164 3164 3164 3164 3165 3166 3167 3168 3170 3171 3172 3172 3173 3172 3172 3172 3173 3174 3175 3176 3176 3177
3128 3131 3133 3135 3137 3139 3142 3144 3146 3147 3149 3151 3152 3153 3154 3155 3156 3158 3159 3159 3160 3161 3161 3161 3162 3163 3163 3164 3166 3168 3169 3168 3168 3168 3168 3168 3168 3169 3170 3171 3172 3172
3125 3127 3129 3132 3134 3136 3139 3141 3143 3145 3146 3148 3149 3150 3151 3152 3153 3154 3155 3156 3157 3158 3158 3158 3158 3159 3160 3161 3162 3164 3165 3164 3164 3164 3164 3163 3164 3164 3164 3165 3166 3167
3122 3124 3126 3129 3131 3133 3136 3138 3140 3142 3143 3144 3146 3147 3148 3149 3150 3151 3152 3153 3153 3154 3154 3154 3155 3155 3156 3156 3157 3158 3160 3160 3160 3159 3159 3159 3159 3159 3159 3159 3160 3161
3120 3121 3124 3126 3128 3130 3132 3135 3137 3138 3139 3141 3142 3144 3145 3146 3146 3147 3148 3149 3149 3150 3150 3150 3151 3151 3151 3152 3153 3154 3154 3155 3155 3155 3154 3154 3154 3154 3154 3154 3154 3155
3117 3119 3121 3123 3125 3127 3129 3131 3133 3134 3136 3137 3139 3140 3141 3142 3143 3143 3144 3145 3145 3146 3146 3146 3146 3146 3146 3147 3148 3149 3149 3149 3149 3149 3150 3150 3149 3149 3149 3149 3149 3150
Wind_Speed
29 28 28 26 24 23 22 21 20 19 17 15 14 12 12 12 15 19 21 23 23 23 22 22 23 23 23 23 22 21 21 20 18 16 14 12 10 7 6 5 5 7
29 29 29 27 25 24 22 21 21 20 19 17 16 15 13 13 15 18 20 22 24 24 24 23 24 25 25 24 24 23 22 21 20 19 16 14 12 9 8 7 7 7
30 30 29 27 26 25 24 23 22 21 20 19 18 18 16 16 17 18 20 22 23 25 26 25 25 26 26 26 25 25 24 23 22 21 19 16 14 12 10 9 9 8
30 30 29 28 27 26 26 25 23 22 21 20 20 20 19 18 18 18 20 22 24 25 26 27 26 27 27 28 27 26 26 25 24 23 21 18 16 14 12 12 11 11
30 30 29 29 28 28 28 27 25 23 22 22 22 22 21 20 20 19 20 22 24 26 27 28 28 28 28 29 29 28 27 27 26 25 24 21 18 17 15 14 14 13
31 31 30 29 29 29 29 27 26 25 24 24 24 24 23 22 21 21 21 21 22 25 27 28 28 29 30 30 30 30 29 28 27 26 25 23 21 19 18 17 16 16
32 31 31 30 30 30 30 28 28 27 26 26 26 25 25 24 23 22 22 22 22 23 26 27 28 29 30 31 31 31 31 30 29 28 26 25 23 21 20 19 18 18
31 32 32 32 32 32 31 30 30 29 28 28 28 26 26 26 25 23 23 23 23 23 25 26 28 28 30 31 31 32 32 31 31 29 28 27 25 24 22 21 20 20
31 32 33 33 34 33 32 31 31 30 30 29 29 28 27 27 26 25 24 24 24 24 25 26 27 28 29 30 31 32 32 32 32 31 29 28 27 26 25 24 22 22
29 31 32 33 34 35 34 32 32 31 31 30 30 29 29 28 28 27 26 25 25 26 26 26 26 27 28 30 31 31 32 32 32 32 31 30 28 27 28 27 25 25
27 29 31 32 33 34 34 33 33 33 33 32 31 31 31 30 29 29 29 27 27 27 27 26 26 26 27 29 30 31 31 32 32 32 32 31 29 29 29 29 28 27
26 27 29 30 31 32 33 33 33 34 34 32 31 31 32 31 29 29 30 29 28 27 28 27 27 27 27 28 30 31 31 32 33 33 33 32 31 30 30 31 31 29
26 26 27 28 28 29 31 31 32 33 33 32 31 31 32 32 31 30 29 30 29 29 29 29 28 29 29 28 29 31 32 32 33 33 33 33 32 31 31 32 32 32
27 27 26 26 26 27 28 29 30 30 31 31 30 30 31 32 32 31 30 30 31 30 31 31 31 31 31 31 30 31 33 33 33 33 33 34 33 32 32 33 34 34
30 28 27 26 26 27 27 27 27 27 28 29 29 28 29 30 31 32 32 31 31 31 32 32 33 33 33 33 32 31 32 33 33 33 34 34 34 34 34 34 35 35
33 30 28 28 28 28 27 26 25 25 25 26 26 25 26 27 29 31 32 31 31 30 31 33 34 34 34 34 33 32 32 33 34 34 35 35 35 35 35 36 36 37
36 34 32 30 29 29 28 27 26 25 24 24 25 24 24 24 26 28 29 30 30 29 30 32 34 34 34 34 34 33 33 34 35 35 36 36 36 36 37 37 38 38
39 37 36 34 32 31 29 28 27 27 26 26 25 25 24 24 25 26 26 28 29 28 28 30 33 34 34 34 34 34 34 35 36 37 37 37 38 38 38 39 39 40
39 38 37 36 35 34 32 31 30 29 29 28 27 26 26 26 26 26 26 27 28 29 28 27 29 31 33 33 34 34 35 36 37 38 39 39 39 40 40 41 41 41
39 38 37 37 36 36 34 33 32 31 31 30 30 29 28 28 28 28 28 28 28 29 29 27 27 28 29 31 32 33 35 36 37 39 40 41 41 42 42 42 42 42
38 38 38 38 38 37 35 34 33 32 33 33 32 31 31 31 31 30 30 30 30 30 31 30 28 28 28 28 29 31 34 36 37 39 41 42 43 44 44 44 43 44
38 39 39 39 39 37 36 34 33 34 34 34 34 33 33 33 32 32 32 32 32 32 32 32 30 30 29 28 28 29 32 36 38 39 41 43 43 44 45 45 45 46
37 38 39 39 39 37 35 34 34 34 34 35 35 35 35 34 33 33 33 33 33 33 33 33 33 33 32 31 30 30 31 34 37 39 41 43 43 44 45 46 47 47
35 37 37 37 36 35 35 34 35 35 35 34 34 35 35 34 34 34 34 34 35 35 35 35 36 36 36 35 35 34 33 34 37 39 41 43 43 44 45 47 48 48
35 35 35 35 35 34 34 35 35 35 35 35 35 35 36 36 36 36 37 37 37 37 37 38 38 39 40 39 39 38 38 37 37 39 42 43 44 45 46 48 49 48
34 34 34 34 34 34 34 35 35 36 37 36 36 37 37 38 39 39 39 40 40 40 40 41 42 43 44 43 41 41 41 41 41 41 42 43 44 46 48 49 49 49
Wind_Direction
219 219 219 220 221 222 222 223 225 228 233 237 239 240 238 232 228 227 227 225 225 228 228 227 226 228 229 229 228 229 232 235 237 239 240 242 244 247 264 287 310 322
220 219 219 221 222 223 224 225 226 228 232 236 240 242 241 238 234 231 229 227 225 227 229 229 227 228 230 230 230 231 234 236 240 243 243 244 246 248 257 273 289 302
221 220 220 222 224 225 226 227 228 229 232 235 238 241 243 242 240 237 233 231 229 227 229 230 229 229 231 232 232 232 234 237 240 245 246 245 246 248 253 265 277 287
222 221 221 223 224 226 227 228 231 232 234 236 238 240 242 243 243 242 238 235 232 230 230 232 232 232 232 233 234 234 235 237 240 244 247 247 246 248 252 259 268 277
225 224 223 224 225 227 228 230 232 234 236 238 239 239 241 244 245 244 243 241 237 235 235 235 235 235 234 235 235 235 236 238 240 243 248 249 248 248 251 256 263 271
226 226 226 227 228 229 231 232 234 236 237 239 240 241 241 242 244 245 245 245 243 241 240 239 239 238 237 237 236 237 236 238 241 243 246 249 250 250 251 255 261 266
227 227 228 229 230 232 233 234 234 236 237 239 240 242 242 242 243 244 245 246 246 245 243 243 242 242 241 240 238 238 238 238 241 244 246 248 251 252 252 255 260 264
227 228 229 230 231 233 234 234 235 236 237 239 241 242 243 243 243 244 245 245 247 248 247 246 245 244 244 244 241 239 238 239 241 244 246 248 251 254 255 256 260 263
226 228 229 230 231 233 234 235 236 237 238 239 242 244 244 244 244 244 244 244 246 248 249 249 248 246 246 246 244 241 240 240 241 244 247 248 250 253 257 257 258 262
225 226 228 229 231 233 235 235 237 238 239 240 242 244 246 246 244 243 243 243 245 248 250 251 251 249 247 247 247 244 242 241 242 244 247 249 249 251 255 258 259 261
221 224 226 227 229 232 234 235 237 239 240 240 241 243 245 246 244 243 244 244 244 248 251 253 255 254 250 248 249 247 245 243 243 244 246 249 250 251 254 257 259 260
217 220 223 225 227 230 233 235 236 238 240 240 240 241 243 246 245 243 244 246 247 249 253 255 256 257 254 250 249 249 247 245 245 245 246 248 250 251 254 257 260 261
216 217 220 223 225 227 231 233 234 236 239 240 239 239 242 245 247 245 245 248 250 251 254 256 256 257 257 253 250 249 249 248 247 246 247 248 249 251 253 257 261 262
217 218 219 222 223 224 227 230 232 233 236 239 239 238 239 243 247 248 248 249 252 254 254 255 254 253 255 254 251 249 249 249 249 248 248 248 249 251 253 256 261 263
221 220 220 221 223 224 225 228 230 230 233 237 238 237 237 240 245 249 251 250 250 251 252 252 251 251 252 253 252 250 250 251 251 250 250 250 250 251 252 255 259 263
225 223 222 222 224 225 225 227 229 230 231 234 237 237 236 237 241 246 250 251 249 248 249 249 249 249 250 251 252 252 251 252 252 252 252 252 251 251 252 254 257 262
226 225 225 225 226 228 228 228 230 234 235 236 238 239 238 237 239 242 247 252 252 249 247 248 250 251 251 252 252 253 253 252 253 253 253 253 253 252 253 254 256 259
226 225 226 227 227 229 230 230 231 235 239 241 243 244 244 244 244 245 247 252 256 255 250 248 250 252 254 254 253 253 254 254 253 253 254 254 254 254 254 255 256 258
226 225 226 227 228 229 230 231 232 235 240 244 246 248 250 251 251 252 253 255 259 262 260 255 253 254 255 255 256 255 255 255 255 254 254 254 255 256 255 256 257 258
226 225 225 226 227 229 230 231 233 235 239 243 247 249 252 253 255 256 257 259 261 264 266 265 262 259 257 256 256 257 257 257 257 257 257 256 256 256 257 257 258 258
226 224 224 225 226 228 230 232 233 235 237 240 243 247 250 252 254 256 258 259 260 262 264 266 266 265 264 260 256 255 256 257 257 258 258 258 257 257 258 258 259 259
226 223 223 224 225 228 230 232 234 236 237 238 240 243 246 250 252 253 255 257 259 260 261 263 265 265 265 265 261 256 255 255 256 258 259 259 259 259 259 259 260 261
226 224 224 225 227 229 232 234 235 237 238 238 240 242 245 248 251 252 254 257 259 260 262 263 265 265 265 266 264 260 255 254 256 257 259 260 261 261 261 260 259 260
228 226 226 228 230 232 233 234 235 236 239 240 241 242 244 248 251 253 254 256 258 260 262 264 265 266 266 265 264 262 259 256 255 256 258 260 261 261 262 261 260 260
229 228 227 228 230 231 232 233 234 236 238 239 241 243 244 245 248 252 254 255 257 259 262 264 265 265 266 266 266 265 264 261 258 256 257 260 261 261 262 262 262 262
230 229 228 228 228 230 231 232 233 235 236 239 241 242 243 244 246 249 252 254 257 259 261 263 265 265 266 267 268 267 266 264 261 259 259 260 261 261 261 261 263 264